Marion, VA

10:37 PM EDT on May 27, 2017 (GMT -0400)
Mountain Empire

Weather History for KMKJ - January, 2013

Change the Weather History Date:

Saturday, January 26, 2013

  Actual Average (KBLF) Record (KBLF)
Temperature  
Mean Temperature 32 °F -  
Max Temperature 35 °F 39 °F 68 °F (1967)
Min Temperature 28 °F 22 °F 4 °F (1982)
Degree Days  
Heating Degree Days 34    
Moisture  
Dew Point 27 °F    
Average Humidity 83    
Maximum Humidity 100    
Minimum Humidity 74    
Precipitation  
Precipitation 0.01 in - - ()
Sea Level Pressure  
Sea Level Pressure 30.16 in    
Wind  
Wind Speed 17 mph (West)    
Max Wind Speed 28 mph    
Max Gust Speed 39 mph    
Visibility 10 miles    
Events      
Averages and records for this station are not official NWS values.
T = Trace of Precipitation, MM = Missing Value Source: NWS Daily Summary

Daily Weather History Graph

Daily Weather History Graph

Search for Another Location

Airport or City:

Trip Planner

Search our weather history database for the weather conditions in past years. The results will help you decide how hot, cold, wet, or windy it might be!

Date:

Astronomy

Jan. 26, 2013 Rise Set
Actual Time 7:31 AM EST 5:44 PM EST
Civil Twilight 7:04 AM EST 6:12 PM EST
Nautical Twilight 6:33 AM EST 6:43 PM EST
Astronomical Twilight 6:02 AM EST 7:14 PM EST
Moon 5:36 PM EST (1/26) 6:49 AM EST (1/26)
Length of Visible Light 11h 07m
Length of Day
10h 12m
Full, 100% of the Moon is Illuminated
Jan 26
Full
Jan 26
Full
Feb 3
Last Quarter
Feb 10
New
Feb 17
First Quarter

Hourly Weather History & Observations

Time (EST) Temp. Windchill Dew Point Humidity Pressure Visibility Wind Dir Wind Speed Gust Speed Precip Events Conditions
12:15 AM 32.9 °F 20.4 °F 32.9 °F 100% 30.02 in 0.8 mi West 23.0 mph - N/A   Overcast
12:35 AM 32.9 °F 20.7 °F 32.9 °F 100% 30.02 in 1.0 mi West 21.9 mph 27.6 mph N/A   Overcast
12:55 AM 32.9 °F 21.3 °F 32.9 °F 100% 30.02 in 2.0 mi West 19.6 mph - N/A   Overcast
1:15 AM 32.9 °F 21.0 °F 32.9 °F 100% 30.02 in 7.0 mi West 20.7 mph 26.5 mph N/A   Overcast
1:35 AM 33.1 °F 21.9 °F 33.1 °F 100% 30.02 in 10.0 mi West 18.4 mph 24.2 mph N/A   Overcast
1:55 AM 33.3 °F 21.5 °F 33.3 °F 100% 30.02 in 10.0 mi West 20.7 mph 27.6 mph N/A   Overcast
2:15 AM 33.8 °F 22.5 °F 32.0 °F 93% 30.03 in 10.0 mi West 19.6 mph 27.6 mph N/A   Overcast
2:35 AM 34.0 °F 22.1 °F 31.3 °F 90% 30.03 in 10.0 mi West 21.9 mph 35.7 mph N/A   Overcast
2:55 AM 33.8 °F 21.9 °F 31.3 °F 90% 30.03 in 10.0 mi West 21.9 mph 27.6 mph N/A   Overcast
3:15 AM 33.3 °F 22.1 °F 30.9 °F 91% 30.03 in 10.0 mi West 18.4 mph 29.9 mph N/A   Overcast
3:35 AM 32.9 °F 20.4 °F 30.4 °F 90% 30.02 in 10.0 mi WNW 23.0 mph 29.9 mph N/A   Overcast
3:55 AM 32.4 °F 19.7 °F 29.1 °F 88% 30.02 in 10.0 mi WNW 23.0 mph 35.7 mph N/A   Overcast
4:15 AM 32.0 °F 18.1 °F 27.9 °F 85% 30.01 in 10.0 mi West 27.6 mph 39.1 mph N/A   Mostly Cloudy
4:35 AM 32.0 °F 19.5 °F 28.4 °F 87% 30.03 in 10.0 mi West 21.9 mph 31.1 mph N/A   Overcast
4:55 AM 32.0 °F 19.2 °F 29.1 °F 89% 30.03 in 10.0 mi West 23.0 mph 28.8 mph N/A   Overcast
5:15 AM 31.6 °F 18.1 °F 28.6 °F 88% 30.04 in 10.0 mi West 25.3 mph 35.7 mph N/A   Overcast
5:35 AM 31.1 °F 18.3 °F 27.0 °F 85% 30.06 in 10.0 mi WNW 21.9 mph 32.2 mph N/A   Overcast
5:55 AM 30.6 °F 17.9 °F 26.4 °F 85% 30.06 in 10.0 mi West 20.7 mph 34.5 mph N/A   Overcast
6:15 AM 30.2 °F 18.5 °F 26.6 °F 86% 30.07 in 10.0 mi WNW 17.3 mph 28.8 mph N/A   Overcast
6:35 AM 30.2 °F 18.1 °F 26.1 °F 85% 30.08 in 10.0 mi West 18.4 mph 24.2 mph N/A   Overcast
6:55 AM 30.0 °F 19.1 °F 25.7 °F 84% 30.09 in 10.0 mi West 15.0 mph 24.2 mph N/A   Overcast
7:15 AM 30.2 °F 18.9 °F 26.4 °F 86% 30.10 in 10.0 mi West 16.1 mph 25.3 mph N/A   Overcast
7:35 AM 30.2 °F 18.5 °F 26.6 °F 86% 30.10 in 10.0 mi West 17.3 mph - N/A   Overcast
7:55 AM 29.8 °F 18.4 °F 25.2 °F 83% 30.12 in 10.0 mi West 16.1 mph 24.2 mph N/A   Overcast
8:15 AM 29.8 °F 18.4 °F 25.5 °F 84% 30.12 in 10.0 mi West 16.1 mph 21.9 mph N/A   Overcast
8:35 AM 30.0 °F 20.0 °F 25.7 °F 84% 30.13 in 10.0 mi WSW 12.7 mph - N/A   Overcast
8:55 AM 30.2 °F 21.3 °F 25.7 °F 83% 30.14 in 10.0 mi WSW 10.4 mph 19.6 mph N/A   Overcast
9:15 AM 30.7 °F 22.0 °F 25.5 °F 81% 30.14 in 10.0 mi WSW 10.4 mph - N/A   Mostly Cloudy
9:35 AM 31.6 °F 23.7 °F 26.2 °F 80% 30.15 in 10.0 mi SW 9.2 mph - N/A   Scattered Clouds
9:55 AM 32.2 °F 24.4 °F 26.6 °F 80% 30.16 in 10.0 mi SW 9.2 mph - N/A   Mostly Cloudy
10:15 AM 32.9 °F 24.7 °F 26.6 °F 78% 30.17 in 10.0 mi WSW 10.4 mph 16.1 mph N/A   Mostly Cloudy
10:35 AM 33.4 °F 24.3 °F 26.2 °F 75% 30.18 in 10.0 mi WSW 12.7 mph 17.3 mph N/A   Mostly Cloudy
10:55 AM 34.0 °F 26.0 °F 28.2 °F 79% 30.18 in 10.0 mi WSW 10.4 mph - N/A   Mostly Cloudy
11:15 AM 34.0 °F 25.5 °F 28.6 °F 81% 30.19 in 10.0 mi WSW 11.5 mph 19.6 mph N/A   Overcast
11:35 AM 34.0 °F 24.2 °F 28.6 °F 81% 30.18 in 10.0 mi WSW 15.0 mph - N/A   Overcast
11:55 AM 34.0 °F 22.7 °F 28.4 °F 80% 30.17 in 10.0 mi WSW 19.6 mph 23.0 mph N/A   Mostly Cloudy
12:15 PM 35.1 °F 25.2 °F 28.8 °F 78% 30.17 in 10.0 mi WSW 16.1 mph 26.5 mph N/A   Overcast
12:35 PM 34.5 °F 25.3 °F 28.6 °F 79% 30.18 in 10.0 mi WSW 13.8 mph 25.3 mph N/A   Overcast
12:55 PM 34.5 °F 24.5 °F 28.9 °F 80% 30.17 in 10.0 mi WSW 16.1 mph 19.6 mph N/A   Overcast
1:15 PM 34.2 °F 25.2 °F 28.8 °F 81% 30.17 in 10.0 mi WSW 12.7 mph 19.6 mph N/A   Overcast
1:35 PM 33.8 °F 23.9 °F 28.8 °F 82% 30.17 in 10.0 mi WSW 15.0 mph - N/A   Overcast
1:55 PM 34.0 °F 23.8 °F 28.8 °F 81% 30.17 in 10.0 mi WSW 16.1 mph 20.7 mph N/A   Overcast
2:15 PM 34.0 °F 25.0 °F 29.3 °F 83% 30.17 in 10.0 mi West 12.7 mph - N/A   Overcast
2:35 PM 33.8 °F 23.5 °F 27.3 °F 77% 30.16 in 10.0 mi West 16.1 mph - N/A   Overcast
2:55 PM 34.2 °F 24.4 °F 27.0 °F 75% 30.17 in 10.0 mi West 15.0 mph 19.6 mph N/A   Overcast
3:15 PM 34.0 °F 25.5 °F 26.4 °F 74% 30.18 in 10.0 mi WNW 11.5 mph 19.6 mph N/A   Overcast
3:35 PM 33.6 °F 23.7 °F 26.4 °F 75% 30.19 in 10.0 mi West 15.0 mph - N/A   Scattered Clouds
3:55 PM 33.4 °F 23.5 °F 26.1 °F 74% 30.20 in 10.0 mi WNW 15.0 mph 19.6 mph N/A   Scattered Clouds
4:15 PM 32.9 °F 22.4 °F 25.5 °F 74% 30.20 in 10.0 mi WNW 16.1 mph 20.7 mph N/A   Clear
4:35 PM 32.4 °F 22.1 °F 25.2 °F 75% 30.21 in 10.0 mi WNW 15.0 mph 23.0 mph N/A   Clear
4:55 PM 32.2 °F 21.1 °F 24.8 °F 74% 30.21 in 10.0 mi WNW 17.3 mph 23.0 mph N/A   Clear
5:15 PM 32.0 °F 21.6 °F 24.8 °F 75% 30.22 in 10.0 mi WNW 15.0 mph 19.6 mph N/A   Clear
5:35 PM 31.5 °F 20.9 °F 24.8 °F 76% 30.23 in 10.0 mi WNW 15.0 mph 20.7 mph N/A   Clear
5:55 PM 31.1 °F 21.9 °F 24.8 °F 77% 30.23 in 10.0 mi WNW 11.5 mph 23.0 mph N/A   Mostly Cloudy
6:15 PM 30.9 °F 21.7 °F 24.8 °F 78% 30.23 in 10.0 mi WNW 11.5 mph 17.3 mph N/A   Overcast
6:35 PM 30.7 °F 22.6 °F 24.8 °F 79% 30.25 in 10.0 mi WNW 9.2 mph - N/A   Overcast
6:55 PM 30.2 °F 22.6 °F 24.6 °F 80% 30.26 in 10.0 mi WNW 8.1 mph - N/A   Overcast
7:15 PM 30.2 °F 22.6 °F 24.6 °F 80% 30.26 in 10.0 mi WNW 8.1 mph - N/A   Overcast
7:35 PM 30.2 °F 21.3 °F 24.6 °F 80% 30.26 in 10.0 mi WNW 10.4 mph 17.3 mph N/A   Overcast
7:55 PM 30.2 °F 20.2 °F 24.6 °F 80% 30.27 in 10.0 mi WNW 12.7 mph 16.1 mph N/A   Overcast
8:15 PM 30.0 °F 20.5 °F 24.6 °F 80% 30.28 in 10.0 mi WNW 11.5 mph - N/A   Overcast
8:35 PM 29.8 °F 20.9 °F 24.6 °F 81% 30.29 in 10.0 mi WNW 10.4 mph - N/A   Overcast
8:55 PM 29.8 °F 19.8 °F 24.4 °F 80% 30.29 in 10.0 mi NW 12.7 mph - N/A   Overcast
9:15 PM 29.7 °F 19.1 °F 24.4 °F 81% 30.29 in 10.0 mi NW 13.8 mph 19.6 mph N/A   Overcast
9:35 PM 29.3 °F 17.7 °F 24.3 °F 81% 30.30 in 10.0 mi WNW 16.1 mph 20.7 mph N/A   Overcast
9:55 PM 29.3 °F 18.2 °F 23.9 °F 80% 30.30 in 10.0 mi NW 15.0 mph 18.4 mph N/A   Overcast
10:15 PM 29.3 °F 19.1 °F 23.9 °F 80% 30.31 in 10.0 mi NW 12.7 mph - N/A   Overcast
10:35 PM 28.9 °F 21.9 °F 23.7 °F 81% 30.32 in 10.0 mi WNW 6.9 mph - N/A   Scattered Clouds
10:55 PM 28.9 °F 21.9 °F 23.9 °F 81% 30.32 in 10.0 mi West 6.9 mph - N/A   Mostly Cloudy
11:15 PM 28.9 °F 23.9 °F 23.7 °F 81% 30.33 in 10.0 mi NW 4.6 mph - N/A   Overcast
11:35 PM 28.9 °F 22.8 °F 23.9 °F 81% 30.34 in 10.0 mi West 5.8 mph - N/A   Overcast
11:55 PM 28.9 °F 22.8 °F 23.9 °F 81% 30.34 in 10.0 mi NW 5.8 mph - N/A   Overcast